Theta_e
356 352 350 348 347 343 338 333 315 324 320 310 311 313 312 328 327 324 322 326 320 331 333 334 331 329 326 324 325 328 328 320 319 308 304 325 343 344 346 349 350 351 352 354 356 356 357 361 361 363 363 364 365 365 364 365 364 364 364 364 364 364 364 364 364 363 363 364 364 364 364 363 363 363 363 363 362 362 362 362 362 362 362 361 362 364 363 363 363 363 363 363 363 363 362 361 361
352 350 349 349 343 340 329 336 318 316 315 309 312 319 320 326 325 321 321 323 325 329 332 333 335 334 336 332 330 329 326 331 332 331 334 341 344 345 350 351 351 351 354 356 357 356 356 360 362 362 363 364 364 364 364 365 364 364 365 364 364 364 364 364 363 364 364 363 363 363 363 362 362 363 363 363 362 362 362 362 362 361 361 362 363 362 362 363 363 363 363 363 363 362 363 361 359
349 348 345 345 344 340 337 334 314 313 307 306 312 318 326 321 320 322 324 325 331 332 334 333 334 333 332 332 325 326 317 335 335 336 335 342 338 342 350 352 353 354 355 356 356 355 355 359 362 363 364 365 363 363 363 363 364 364 364 364 363 363 362 360 361 364 363 363 363 362 362 362 362 363 363 362 362 362 362 362 361 361 362 361 363 363 362 363 363 363 363 363 363 362 362 361 360
348 347 341 342 333 341 326 325 318 314 309 309 311 319 322 322 323 324 326 329 334 333 332 330 327 334 332 325 326 331 329 330 336 335 333 337 336 347 351 354 356 355 356 356 355 354 354 360 362 363 364 363 362 364 364 363 364 363 363 363 363 361 362 362 362 363 362 363 362 362 360 362 361 361 362 361 362 362 361 361 360 361 362 361 361 363 363 363 362 363 362 361 363 362 362 360 360
345 346 346 340 334 325 325 322 319 318 310 314 310 320 322 327 324 326 329 332 333 332 331 330 327 333 336 330 331 323 325 336 337 340 338 344 349 350 353 355 355 354 354 354 354 354 356 361 362 363 363 364 365 363 363 363 363 363 362 362 363 364 363 362 363 363 363 362 362 362 362 361 361 361 361 361 361 360 360 361 361 361 361 361 361 361 364 364 360 361 361 362 362 362 362 362 362
347 344 353 344 330 339 331 319 316 314 319 323 317 320 324 328 328 329 333 333 333 333 332 330 326 327 328 331 335 330 335 327 338 339 342 343 349 353 354 355 354 353 353 352 353 353 354 361 363 363 362 364 365 365 364 363 362 361 362 363 364 362 362 362 363 362 362 361 361 362 362 361 361 361 361 361 361 360 360 361 360 360 361 359 360 361 364 364 361 361 363 364 362 362 362 362 361
340 343 345 342 337 337 319 317 316 317 322 327 322 324 326 328 330 331 326 327 331 332 335 330 331 329 325 332 337 340 344 342 339 341 346 348 352 354 354 353 352 351 351 352 352 353 356 362 364 364 363 364 363 362 362 363 362 363 362 362 363 363 361 361 363 363 362 362 362 361 361 361 360 360 361 362 361 361 361 361 360 359 358 358 359 361 364 363 362 362 363 362 361 361 362 361 362
354 340 336 327 323 327 318 319 318 320 322 328 326 326 329 331 332 331 325 324 324 325 329 331 330 328 327 337 327 340 345 346 345 349 349 351 353 353 353 352 350 350 351 352 353 354 362 363 364 362 363 363 363 362 362 364 362 362 362 362 362 361 361 361 362 362 362 361 361 362 361 362 361 361 361 362 361 362 362 362 360 358 359 359 359 362 364 361 362 362 362 362 362 362 362 362 363
350 341 340 329 320 324 319 318 319 327 325 328 326 331 335 333 332 332 326 326 326 328 327 329 329 323 327 330 331 339 342 347 349 350 350 351 351 352 352 351 350 350 352 353 354 356 359 364 364 362 363 363 363 362 362 363 362 362 361 361 362 363 361 361 362 361 362 362 362 362 362 361 361 361 361 361 362 360 361 361 360 360 359 361 362 361 363 361 361 361 360 362 363 363 362 363 363
340 340 326 325 325 316 317 318 317 322 323 329 327 331 333 334 332 332 328 325 326 328 328 332 332 326 331 327 332 337 340 347 348 348 350 351 351 351 351 352 352 352 352 353 355 358 359 363 362 362 363 364 362 362 362 362 360 361 361 360 361 362 361 361 361 361 361 361 362 361 362 362 361 360 361 360 362 361 360 360 360 361 361 361 362 361 363 360 360 360 362 362 361 362 362 364 361
330 339 338 322 316 315 313 315 318 323 324 330 331 335 335 334 332 330 331 326 329 328 330 333 328 328 330 330 332 343 346 347 346 345 349 350 351 350 351 353 353 353 352 354 357 358 359 359 362 362 363 364 361 360 359 361 362 361 362 362 362 362 361 361 361 361 362 361 360 361 360 361 361 360 361 361 360 362 360 360 361 362 362 361 362 361 360 360 360 361 361 361 361 362 363 363 360
327 328 330 317 315 315 317 317 320 323 328 329 326 333 334 333 334 331 327 325 328 328 327 331 326 333 328 329 331 341 344 345 346 348 349 350 350 352 353 353 354 354 355 356 358 357 357 358 359 362 363 362 359 358 358 361 362 362 362 361 360 361 361 361 361 360 361 360 360 360 360 360 360 360 360 361 360 361 361 360 360 361 362 361 360 362 361 360 361 361 361 362 362 362 362 361 360
329 331 323 318 318 319 322 319 320 323 323 326 327 333 338 332 329 331 327 328 328 326 327 333 334 332 323 327 337 341 341 344 347 349 349 349 351 353 354 354 355 356 357 358 357 356 357 356 359 359 361 360 357 359 360 362 362 362 361 360 359 360 361 360 361 361 360 360 360 359 360 360 360 360 359 359 359 359 360 361 360 360 361 362 362 362 362 361 362 362 361 361 362 362 363 362 360
331 332 326 318 326 321 320 319 322 319 320 327 331 334 334 331 333 332 329 326 327 326 333 336 334 333 328 332 334 335 340 346 348 349 349 351 353 353 353 355 355 356 357 357 356 356 355 357 358 358 359 358 358 360 361 361 362 362 361 360 360 360 360 361 361 361 361 361 361 360 360 360 359 361 361 361 360 361 360 361 360 363 363 364 363 362 361 360 362 361 361 362 361 361 362 361 360
334 338 327 322 320 323 323 317 320 319 319 328 332 332 334 335 335 335 331 325 327 335 336 340 335 329 322 326 327 334 341 345 348 349 350 352 353 353 353 354 355 355 356 357 356 356 356 356 356 357 358 356 356 356 357 359 362 362 362 361 360 360 360 361 360 361 362 362 362 361 361 360 360 360 359 361 361 363 363 361 362 362 362 363 363 362 360 362 361 360 360 361 361 362 361 362 361
340 335 326 319 318 319 320 321 325 320 321 332 334 336 335 336 339 334 335 334 331 336 336 329 337 330 330 329 332 339 344 346 349 350 350 350 351 351 352 353 353 354 355 355 355 356 356 355 354 355 355 356 356 356 357 357 360 361 361 361 361 360 360 360 361 361 361 361 361 360 361 361 359 357 359 358 360 360 362 360 361 363 363 363 363 363 361 361 360 360 360 360 360 361 361 361 360
344 336 320 320 316 319 322 321 323 317 326 332 335 333 329 328 338 340 345 341 329 330 332 333 331 337 332 334 340 343 345 348 349 348 348 347 347 347 349 350 351 352 354 354 353 354 355 354 354 354 355 355 356 357 356 356 359 360 360 361 361 360 358 359 359 361 361 361 362 360 360 355 354 355 356 357 358 359 361 361 361 362 362 362 362 362 361 361 361 360 361 362 361 359 361 360 360
337 323 319 315 320 320 325 323 325 330 326 329 331 332 331 326 332 336 336 332 331 331 330 333 336 336 338 340 343 345 346 346 346 345 344 343 344 344 344 346 348 347 350 350 353 354 354 353 354 354 354 355 356 356 357 357 358 359 355 356 359 357 357 358 358 357 361 357 361 356 354 357 352 354 357 362 360 360 360 361 361 364 363 363 363 362 361 360 361 361 361 360 360 361 364 356 359
329 325 322 317 324 327 332 331 329 328 327 330 332 335 330 329 332 336 328 327 328 326 328 332 332 335 339 341 342 343 345 345 344 343 342 341 342 341 342 344 346 347 348 350 352 354 352 353 354 354 353 355 355 355 356 358 355 354 354 356 358 358 357 357 355 354 351 352 353 353 354 351 351 353 356 357 360 360 360 360 363 364 363 363 363 363 362 361 361 361 360 360 362 364 355 352 352
334 327 319 322 330 332 334 334 331 333 333 331 332 334 331 332 335 337 327 325 327 324 325 329 329 331 335 338 341 343 344 343 343 342 341 341 342 342 342 343 344 346 347 349 350 353 353 352 353 353 353 354 354 354 355 353 353 353 353 355 355 355 354 354 352 351 350 350 350 350 350 351 350 351 358 360 361 355 356 359 360 361 361 363 364 364 361 361 361 359 361 365 364 359 353 353 352
334 329 324 327 334 330 331 335 335 335 336 333 332 334 331 332 336 335 328 324 324 326 330 329 329 332 334 337 340 342 342 342 341 341 341 341 341 342 343 344 344 346 348 351 352 352 352 353 353 353 353 354 353 355 353 352 352 352 353 354 354 353 352 351 351 350 349 348 349 349 349 352 350 350 351 351 351 352 352 352 354 355 356 357 362 353 354 356 355 352 353 356 352 354 353 352 352
333 331 332 332 335 328 333 334 337 335 337 333 332 328 328 336 337 332 328 322 321 327 331 333 334 335 335 337 340 341 341 340 340 340 340 340 340 341 343 344 346 348 350 349 350 351 352 354 354 353 353 353 353 352 351 355 354 351 352 353 353 352 351 351 351 350 348 348 348 350 351 347 348 348 349 349 350 350 351 351 352 352 352 353 357 351 351 351 349 350 349 351 351 353 353 351 352
325 332 332 334 336 331 335 335 336 336 334 334 331 332 335 332 331 333 329 326 329 334 335 336 336 337 338 340 340 339 339 339 340 340 340 340 340 342 343 344 345 346 349 349 351 351 353 354 354 353 352 352 352 353 353 354 351 352 353 354 352 352 351 352 353 352 349 347 348 350 347 345 346 347 347 346 347 348 349 348 350 351 350 349 355 349 349 349 349 349 349 350 349 353 353 352 351
333 327 330 331 337 333 338 336 337 336 335 333 336 337 332 330 325 334 328 337 333 335 337 337 338 339 339 338 338 338 338 339 340 341 342 341 342 342 344 344 347 348 348 349 351 352 353 353 354 353 352 352 352 353 353 352 351 353 355 356 354 357 354 353 353 353 350 348 349 348 350 345 345 345 345 345 345 345 347 346 348 349 348 348 353 351 349 349 349 348 349 350 351 350 353 353 352
330 327 331 331 337 337 338 337 337 337 335 339 337 333 331 332 330 333 330 335 334 336 337 338 338 338 338 338 338 338 338 340 340 342 343 344 344 345 346 346 347 347 347 349 351 352 353 355 354 353 353 352 353 354 353 352 353 353 355 353 353 358 353 355 354 353 349 349 349 349 350 346 345 345 345 345 345 345 345 346 345 345 347 348 350 350 350 349 349 349 350 351 352 351 351 353 353
332 331 328 329 333 337 336 337 336 336 337 338 332 330 332 333 336 332 335 332 335 337 337 337 337 336 336 337 338 338 338 339 341 341 342 344 345 345 345 346 347 347 348 349 350 352 353 355 354 354 353 353 353 354 352 353 353 353 353 352 353 356 351 354 357 354 352 348 347 348 350 347 345 346 345 344 345 344 345 345 347 346 347 349 351 349 352 350 350 350 351 351 350 350 352 352 356
334 332 331 330 332 336 336 334 335 335 337 334 330 328 330 335 333 322 335 333 335 335 335 336 336 335 336 337 338 339 339 339 341 343 343 343 344 344 345 346 347 347 349 349 350 352 355 355 354 355 354 356 354 354 353 353 354 352 353 352 352 352 352 355 355 355 353 350 348 348 350 351 348 347 345 344 345 345 345 344 344 346 348 349 350 350 352 352 350 349 350 351 349 349 351 351 353
334 333 331 331 332 336 335 336 336 338 333 335 331 329 332 335 334 326 328 334 335 333 334 334 334 335 336 337 338 339 340 341 342 343 341 341 342 343 344 345 346 347 348 348 350 353 355 354 355 355 355 356 355 354 355 354 354 353 353 352 351 351 354 352 353 353 354 350 350 350 351 351 353 347 346 344 344 345 345 346 345 347 349 349 351 351 351 353 351 352 355 355 354 352 353 353 352
333 333 325 329 333 330 334 332 334 337 332 337 334 327 325 328 327 334 333 334 334 333 332 333 333 334 335 337 337 338 339 341 342 342 342 343 344 345 345 347 347 347 349 350 351 354 354 354 354 354 355 356 354 355 356 355 354 353 352 351 350 352 354 352 350 351 350 349 350 350 351 352 353 348 346 348 350 344 348 345 345 351 349 349 351 355 355 351 351 351 351 356 352 352 350 350 354
333 332 328 325 327 326 331 332 334 333 333 336 336 313 318 324 329 336 334 332 333 331 331 332 332 333 334 335 336 337 339 340 340 341 343 343 344 345 346 348 349 349 348 349 352 353 355 355 355 355 355 355 355 356 355 353 353 351 351 350 352 352 352 351 352 350 351 352 351 350 351 352 353 350 348 348 346 346 346 345 345 346 348 351 354 355 350 350 350 351 353 350 358 351 348 349 351
324 328 328 320 319 318 330 330 331 330 335 335 336 314 317 323 329 338 332 332 330 329 330 331 331 332 333 334 334 335 336 339 340 341 342 343 344 345 347 348 349 349 350 350 351 352 354 354 354 354 355 354 357 356 355 352 351 351 349 349 350 351 351 350 351 351 351 351 351 350 351 352 353 353 350 348 348 346 346 346 347 347 350 355 354 353 351 350 350 351 355 350 347 346 349 350 350
326 319 314 321 315 320 325 332 332 327 331 334 331 315 317 323 329 338 338 330 330 327 328 329 330 331 332 332 332 333 334 337 339 341 342 343 344 345 346 347 349 349 349 350 352 353 353 353 355 353 354 353 355 356 352 352 351 349 348 352 349 350 351 350 351 352 351 351 352 350 351 352 354 354 352 350 347 346 347 348 348 349 353 354 354 356 353 351 350 351 352 348 343 344 349 346 347
321 315 314 315 319 319 321 327 333 334 332 332 329 317 320 323 331 337 339 332 328 326 327 327 328 330 330 330 331 331 332 334 337 340 341 342 344 345 346 347 348 349 350 351 352 352 352 353 356 353 353 353 355 355 351 351 349 347 349 351 349 350 349 350 350 351 352 351 351 351 353 354 356 357 355 351 348 347 348 349 350 352 357 354 352 352 351 353 350 353 347 353 348 344 345 346 346
313 315 312 317 316 318 316 327 331 331 331 324 329 322 322 325 328 336 336 337 327 325 326 326 328 329 330 330 330 330 330 331 334 337 339 341 343 344 345 349 348 349 351 352 353 352 352 353 354 354 354 354 354 352 351 349 348 349 349 349 353 349 349 350 350 351 352 351 352 353 355 358 360 357 357 353 350 351 351 352 353 354 355 354 351 350 350 351 350 348 347 349 352 346 345 346 346
311 311 311 314 321 320 318 319 325 328 329 324 326 323 324 326 331 331 333 336 331 326 326 327 327 328 328 328 329 328 329 330 334 337 339 341 342 343 345 347 348 349 351 352 353 352 352 353 354 355 354 352 351 351 350 348 348 349 349 350 348 348 349 350 349 349 352 353 354 356 357 361 362 356 356 356 353 356 352 352 353 356 356 354 352 350 349 355 354 351 349 348 352 351 349 348 348
315 314 314 317 316 317 317 323 328 326 323 322 322 319 322 325 327 330 331 335 331 326 327 327 327 328 328 328 328 327 328 329 334 336 339 340 341 342 343 346 348 349 351 351 352 351 351 351 351 353 352 350 349 349 348 346 347 348 347 347 346 349 348 350 350 349 353 355 357 359 359 359 360 358 356 356 357 354 352 352 354 355 355 351 350 349 347 348 349 349 349 352 351 354 355 355 351
314 317 317 317 317 319 324 326 328 329 323 322 324 323 325 324 325 329 333 335 330 325 325 325 326 327 327 326 327 326 326 328 333 335 338 339 341 342 344 345 346 348 349 350 349 349 349 349 349 349 348 349 348 346 345 344 343 343 344 345 343 346 347 348 351 351 353 356 358 359 359 359 357 358 358 356 356 360 354 352 353 353 354 353 350 349 347 348 351 351 353 355 356 349 346 349 349
314 315 317 316 317 317 324 324 329 330 323 320 324 322 323 323 326 330 334 332 327 324 324 324 325 326 326 325 324 325 326 329 333 333 335 338 339 341 344 344 347 344 346 348 347 347 347 348 348 347 347 348 348 347 346 345 344 343 343 344 346 346 349 348 346 350 353 358 358 359 360 359 357 357 359 357 357 354 352 351 351 352 352 352 353 353 351 361 354 353 354 349 349 349 344 350 351
315 315 315 315 316 322 325 325 328 328 324 319 322 320 321 324 327 329 330 333 335 334 325 325 325 325 324 325 323 324 325 327 330 332 334 336 338 341 343 343 344 345 346 347 347 346 346 347 347 346 347 348 347 347 346 344 345 347 345 345 346 346 350 351 349 354 357 357 359 360 360 358 356 356 359 360 355 353 352 351 352 351 352 356 349 347 348 350 353 354 353 349 347 348 352 354 350
311 313 313 311 317 316 312 322 327 327 324 319 322 320 320 324 328 328 330 332 334 337 334 326 326 324 323 324 323 323 324 326 327 329 332 335 338 340 341 341 343 344 345 345 345 345 346 347 346 346 346 347 347 348 349 346 347 347 348 348 349 349 347 353 353 355 356 357 357 359 359 358 357 357 359 359 356 354 352 352 352 351 352 354 349 349 349 349 350 352 352 355 349 343 344 345 355
310 315 313 313 315 315 318 319 324 326 327 326 322 317 317 321 320 323 331 334 333 334 332 327 326 325 326 325 324 325 324 326 327 328 332 334 337 338 338 340 342 342 344 344 345 345 347 346 346 346 346 347 347 351 349 347 350 346 348 350 353 351 353 350 349 351 354 356 357 356 358 358 358 358 359 358 358 354 352 352 352 350 351 353 354 350 349 351 352 353 351 352 349 345 343 341 343
299 313 314 316 318 318 321 322 319 316 314 322 320 308 310 318 321 322 328 329 328 333 329 326 328 328 325 322 323 324 326 327 327 328 331 334 336 336 337 339 341 342 343 344 345 346 346 346 346 346 346 347 348 350 348 349 350 345 345 345 344 343 343 345 346 348 351 354 355 357 359 359 359 358 358 358 358 357 353 353 352 352 352 355 355 353 352 353 352 354 353 351 349 348 346 345 340
297 302 315 318 319 320 320 318 316 308 306 317 325 308 305 315 317 321 324 325 325 330 330 331 331 332 326 322 323 323 325 325 326 329 332 334 335 334 335 338 340 341 342 345 345 345 346 346 347 347 346 346 348 351 349 352 348 347 346 346 346 345 345 347 348 351 353 354 356 356 357 359 358 359 360 358 358 357 354 353 353 353 354 353 359 355 354 353 353 354 356 352 351 354 350 345 342
294 301 317 319 319 319 319 318 315 312 322 322 322 317 306 307 314 323 325 323 324 325 329 332 332 332 329 326 325 323 325 324 325 328 332 334 334 334 335 338 340 341 343 344 344 345 345 347 346 347 347 348 347 349 349 350 348 347 347 347 348 345 347 348 350 351 354 357 354 355 357 357 357 358 359 357 358 358 356 354 353 354 354 354 358 357 355 355 355 355 357 355 353 355 350 344 342
294 305 319 318 320 320 320 316 312 315 314 309 315 319 306 306 316 324 323 319 321 323 326 328 331 331 332 334 335 326 324 323 325 328 331 332 333 334 336 338 340 341 342 343 344 344 346 347 348 347 347 347 346 348 349 349 350 348 348 348 347 348 348 350 353 356 354 356 353 353 354 355 355 356 358 358 357 358 361 356 354 353 354 355 360 359 356 356 355 353 351 351 349 351 352 349 346
299 312 320 321 322 321 318 312 312 312 309 305 311 316 304 304 313 316 321 319 319 321 325 328 332 332 332 334 336 338 329 320 326 329 331 332 334 335 337 339 340 340 342 345 344 345 346 347 347 347 346 347 346 346 349 347 349 350 346 347 347 346 350 348 350 351 351 352 352 351 352 353 354 354 356 357 357 359 360 359 356 356 356 357 360 358 356 355 354 352 352 351 350 348 353 351 352
318 320 314 312 312 312 314 312 309 303 299 305 313 315 309 300 309 314 314 316 322 324 326 330 333 333 332 334 336 337 340 327 323 328 331 332 335 336 337 338 339 339 340 343 343 344 346 347 346 346 346 347 347 345 348 347 348 349 347 347 347 346 347 348 348 348 348 348 350 351 351 352 353 354 355 357 358 359 359 360 358 357 357 361 361 358 357 357 356 355 355 354 353 350 348 350 353
319 313 311 310 307 311 308 307 306 296 294 301 314 314 312 299 304 315 321 328 327 326 325 327 330 332 331 333 337 337 338 340 325 326 329 331 333 335 337 337 338 338 339 341 343 344 346 346 346 345 345 346 345 346 348 347 349 349 348 348 347 347 348 348 348 348 348 349 350 350 350 350 352 353 354 355 356 359 359 358 360 359 359 355 356 358 357 356 355 356 355 352 351 352 350 352 348
312 313 312 304 296 301 298 299 296 294 295 302 314 313 307 305 308 316 321 325 327 330 330 329 330 331 333 335 335 336 340 338 336 325 327 330 332 333 335 336 337 337 338 341 343 343 346 346 345 345 344 346 345 346 347 347 348 349 350 349 347 348 348 349 348 348 349 349 350 350 349 349 349 351 352 354 355 358 359 357 357 358 357 358 356 355 355 355 354 355 353 353 352 351 350 350 349
310 309 305 300 293 292 289 293 295 294 300 306 311 314 305 306 312 320 321 325 330 330 332 333 332 334 334 334 335 339 339 340 339 335 326 329 332 334 335 336 337 338 338 340 343 343 345 346 345 344 344 347 345 346 347 347 348 349 350 351 349 351 348 349 348 348 349 350 350 350 350 350 350 352 353 353 356 358 359 359 359 359 358 357 357 356 355 356 356 355 353 352 352 352 351 352 351
311 312 309 304 300 295 290 291 291 293 295 307 313 307 298 303 308 320 323 327 333 333 334 335 337 334 335 337 338 338 338 340 340 336 331 328 331 333 334 336 337 338 339 340 343 343 344 345 345 345 344 346 345 346 347 347 348 348 349 351 350 352 348 349 349 349 349 350 350 350 350 350 350 352 353 355 358 358 359 358 358 358 358 356 356 357 361 359 361 358 357 353 352 352 350 352 351
301 306 307 305 302 301 296 297 296 298 301 301 305 304 308 307 318 323 327 330 331 334 336 336 334 335 335 336 336 337 338 340 344 341 340 339 336 333 334 335 337 338 339 340 342 344 343 344 345 345 345 347 345 347 347 348 347 349 348 349 350 352 354 351 351 353 351 351 352 351 350 350 351 352 353 355 356 358 358 358 358 358 358 357 357 357 358 360 359 356 354 354 353 360 353 352 351
298 304 300 303 306 302 297 304 308 308 303 298 307 306 309 315 318 322 326 327 327 330 333 334 334 334 333 333 335 336 338 339 341 341 338 338 339 339 336 334 335 337 339 340 342 344 344 344 346 345 345 347 346 348 348 348 348 348 349 349 349 351 352 350 350 350 352 353 353 352 351 351 352 353 354 356 355 356 357 357 357 357 357 357 357 358 360 359 358 358 357 354 353 353 355 352 352
297 298 301 302 303 303 298 293 296 295 295 300 307 304 306 307 304 321 322 322 323 326 328 330 331 332 331 333 335 337 337 340 342 344 343 339 340 342 342 339 336 336 338 339 342 345 345 345 346 345 345 347 346 347 348 349 349 349 349 349 349 351 352 352 350 351 352 353 353 353 352 352 353 355 355 357 356 355 355 361 356 356 357 357 358 359 360 360 358 356 357 356 356 354 354 355 355
298 297 300 299 295 294 295 298 291 292 294 298 303 306 306 304 303 316 317 318 320 323 327 328 328 330 331 333 335 338 339 340 341 342 341 340 340 341 342 343 345 344 343 339 342 345 345 345 346 346 345 348 348 348 349 350 351 350 351 351 350 350 352 352 351 352 352 352 354 353 353 353 354 355 356 355 354 354 354 355 356 356 356 357 358 358 359 358 357 356 355 355 354 354 353 352 353
300 299 298 298 296 294 293 295 295 299 295 298 299 305 300 308 308 317 316 320 320 322 325 326 329 330 331 332 334 335 336 338 341 341 342 343 343 345 345 343 345 347 346 346 343 345 345 345 348 347 347 348 349 348 350 349 351 351 351 351 351 350 352 352 351 351 352 352 353 354 354 353 353 356 355 355 355 354 354 354 356 356 357 357 357 358 359 357 357 357 356 356 354 353 353 352 354
297 298 292 297 297 298 297 296 298 297 296 296 297 296 301 305 315 319 319 321 323 324 324 325 327 329 332 331 330 330 332 335 341 343 344 345 345 348 347 347 349 351 351 350 348 345 345 346 347 349 347 348 350 350 349 349 350 351 352 351 351 350 351 352 351 351 352 352 352 354 354 355 354 354 355 353 353 354 354 354 355 355 356 357 356 357 357 357 356 356 355 354 353 353 352 353 354
296 292 295 296 294 293 290 291 297 302 298 292 296 295 302 312 321 321 321 323 323 325 324 324 326 327 328 330 331 330 332 337 341 343 344 345 346 347 348 348 348 349 349 348 349 349 348 347 348 349 349 349 350 351 351 351 351 351 351 351 352 352 351 352 351 350 351 351 351 352 353 353 353 354 354 353 351 353 354 355 355 354 354 356 357 356 357 356 355 354 355 358 356 354 353 353 351
Wind_Speed
6 4 4 3 2 2 2 2 0 1 1 0 1 1 1 1 1 2 3 3 6 1 1 4 8 8 2 2 4 5 2 8 2 6 3 1 4 8 7 10 10 9 7 5 4 6 5 5 8 9 10 10 10 11 11 12 11 11 11 11 12 12 12 12 11 11 12 11 11 11 11 11 11 11 11 11 12 12 12 13 13 13 13 14 14 15 15 14 14 14 14 15 14 14 15 15 14
4 4 3 2 1 1 1 0 2 1 2 1 1 1 0 0 1 4 7 4 2 4 4 4 6 7 5 8 9 6 6 5 2 1 3 4 6 5 7 11 11 11 7 4 4 3 3 3 7 8 8 10 10 11 11 11 11 11 10 11 11 11 11 12 12 12 11 11 11 11 11 11 11 10 11 11 11 12 12 12 12 12 13 13 13 14 14 14 14 14 14 14 14 14 14 16 15
5 5 4 0 1 0 0 0 1 0 1 2 1 1 0 1 3 3 6 5 3 9 6 7 9 3 2 3 5 2 1 5 6 3 5 7 10 4 8 9 9 8 7 4 4 3 3 4 5 7 7 9 9 11 10 10 10 10 10 10 10 11 11 10 12 12 12 12 11 11 11 11 10 10 10 10 10 11 12 11 11 13 12 11 11 12 14 14 14 14 14 14 14 14 15 15 11
5 3 5 2 1 1 0 0 1 1 1 1 0 1 1 2 4 7 5 2 3 10 7 6 5 2 1 4 4 5 5 3 2 7 7 6 1 8 8 9 9 7 6 4 3 3 3 5 6 5 6 9 10 11 10 9 10 10 10 9 10 10 11 11 11 12 12 12 12 11 11 11 10 10 10 10 10 10 11 11 12 13 12 12 11 10 12 14 14 14 14 15 14 14 15 16 13
5 4 3 2 0 1 1 1 0 1 2 2 4 0 2 1 4 3 2 3 1 9 5 4 5 2 2 4 0 0 3 5 5 2 5 3 8 9 9 9 8 8 7 5 4 3 3 7 6 5 7 9 10 11 10 10 11 10 10 11 12 12 11 11 11 11 11 11 12 11 11 11 11 10 10 9 10 10 10 11 11 13 12 12 10 9 10 13 14 14 14 15 14 14 14 13 12
4 3 1 1 2 0 1 0 0 1 1 1 1 2 3 2 2 1 0 4 5 2 5 4 6 6 3 3 2 2 7 4 5 4 5 6 10 11 10 9 8 8 7 4 4 3 3 7 6 4 8 9 9 10 10 10 10 10 11 11 12 11 11 11 12 11 11 11 12 11 11 11 11 10 10 10 10 9 9 11 10 12 13 12 9 9 8 13 15 14 14 14 14 14 13 12 12
3 2 0 1 1 1 1 1 2 1 1 1 1 1 3 2 2 3 6 6 3 5 2 6 13 9 7 3 6 4 1 7 4 4 5 11 12 10 10 8 8 7 6 5 3 3 3 5 5 5 9 8 9 9 9 11 10 10 11 11 12 11 11 11 11 11 11 11 11 11 11 10 10 10 10 10 11 9 9 9 11 14 13 12 10 11 10 14 15 13 14 14 13 13 12 10 9
1 1 1 1 1 0 1 1 1 2 1 2 3 2 2 2 1 2 6 9 5 3 5 9 6 8 6 3 5 3 5 5 8 10 14 12 11 10 9 8 8 7 6 5 3 2 6 6 4 8 8 9 9 9 9 10 10 10 10 11 11 11 11 11 11 11 10 10 11 10 10 10 11 9 8 10 11 11 10 9 11 14 16 14 13 11 11 15 15 13 13 14 12 12 11 9 8
2 3 1 1 0 1 1 1 2 3 1 1 1 1 3 3 2 2 4 3 5 7 9 8 6 11 2 9 5 5 7 10 11 13 13 13 11 10 7 8 8 7 7 5 4 2 2 6 7 8 8 9 9 8 7 10 11 10 11 10 12 11 11 10 10 10 10 10 10 10 9 10 11 10 8 9 9 11 12 11 9 12 13 13 13 13 13 16 15 15 13 12 11 10 10 9 8
2 0 1 1 1 2 2 0 2 2 3 2 1 1 2 1 2 2 4 6 6 9 4 3 2 12 10 12 6 4 6 12 12 12 11 12 11 9 9 8 8 9 7 5 3 2 2 8 9 7 8 10 9 8 7 10 10 11 11 12 11 11 10 10 10 10 9 10 10 10 9 9 10 10 9 8 8 11 14 13 12 12 12 13 12 12 14 15 15 14 13 12 11 10 9 9 9
1 1 1 1 1 2 2 1 2 1 2 1 1 4 2 1 2 1 1 7 6 7 9 15 11 14 8 5 4 5 10 11 12 12 11 11 10 9 8 8 8 8 8 6 4 3 2 3 8 7 7 10 10 6 7 8 11 12 11 10 10 10 10 10 10 10 9 9 11 10 7 6 9 12 9 10 10 10 12 13 12 12 12 12 12 12 14 15 15 13 12 12 11 11 10 9 10
0 1 0 1 2 2 1 4 4 4 2 1 1 1 1 2 1 2 7 10 7 11 12 3 7 13 10 6 3 8 10 9 10 11 11 10 9 9 8 7 8 8 8 7 5 2 1 2 3 6 7 11 9 6 8 10 11 11 10 10 10 9 9 9 10 10 9 9 11 9 9 9 9 12 10 10 8 10 12 13 12 13 12 12 15 15 15 15 14 12 11 11 11 11 10 9 10
0 1 2 2 1 1 2 5 4 7 3 1 2 1 0 3 2 1 6 10 10 13 6 2 16 3 7 6 5 9 10 9 10 12 11 9 9 8 8 7 8 9 8 7 4 2 3 2 2 2 4 11 11 10 9 9 11 12 10 10 9 10 10 9 10 10 10 9 10 9 10 9 10 10 13 14 11 11 13 13 14 14 14 14 14 14 14 14 14 11 12 12 11 11 10 10 10
2 3 3 1 1 2 4 2 5 6 2 1 1 2 1 2 1 1 6 10 10 3 4 13 4 11 11 9 7 7 8 11 12 12 10 10 9 9 9 7 8 8 7 5 4 4 3 2 2 2 3 2 5 7 8 8 9 10 10 9 9 9 10 9 9 10 10 9 9 9 9 9 9 10 10 10 11 11 11 12 13 12 13 13 14 14 14 14 13 11 12 11 11 11 10 10 10
2 1 1 1 1 2 2 6 7 6 4 4 3 2 2 1 2 1 4 13 2 8 11 6 10 6 10 16 10 10 11 13 13 12 11 11 11 9 9 7 8 7 6 5 4 4 3 3 3 3 3 4 4 4 3 3 8 9 8 8 9 9 9 8 7 9 10 9 9 9 9 9 8 9 10 10 8 10 11 11 14 12 14 13 14 13 13 13 12 11 11 10 11 11 11 9 8
1 3 1 0 0 2 3 1 3 5 3 3 2 0 2 3 1 1 2 2 6 5 8 7 4 0 9 0 12 14 16 14 12 12 12 12 10 9 8 8 7 6 5 5 5 3 4 4 3 4 4 4 4 4 3 2 5 8 8 7 8 8 11 8 8 7 9 9 10 9 8 6 7 6 10 9 10 9 10 9 11 12 13 13 13 13 12 12 12 11 10 10 11 11 11 9 8
1 1 0 0 1 3 4 3 7 7 4 3 2 4 4 3 1 3 2 4 14 7 1 3 2 6 8 6 13 15 15 14 13 14 12 10 8 7 6 5 5 5 5 4 4 4 4 4 3 4 3 4 4 3 3 2 3 7 6 7 7 9 9 8 6 5 8 8 8 8 7 5 5 3 4 5 5 5 9 11 11 12 12 12 12 12 12 11 11 11 10 11 11 11 10 9 9
1 1 1 1 1 2 0 2 1 1 9 6 6 5 3 4 1 2 7 4 7 5 6 6 9 10 8 13 13 14 14 14 14 14 11 9 8 7 6 5 6 6 5 5 4 4 4 3 3 4 4 4 4 3 2 3 3 3 2 2 4 6 5 7 5 2 6 4 7 6 4 3 4 3 4 4 4 5 5 10 11 12 12 11 11 11 11 11 11 9 9 9 10 10 8 5 4
3 1 1 1 2 3 4 4 5 1 4 7 5 3 5 3 5 1 6 6 7 9 7 10 12 13 13 13 15 14 14 14 14 12 13 12 10 11 8 7 6 6 6 5 4 5 4 3 3 4 4 4 5 3 3 3 3 3 3 3 5 7 5 4 3 4 4 4 4 4 4 3 3 3 4 3 3 9 5 8 10 11 11 11 11 11 10 10 10 9 9 9 9 9 5 4 4
3 1 1 2 3 3 7 5 8 2 7 9 7 5 5 5 3 1 8 8 8 10 11 12 14 16 16 16 15 14 14 14 12 13 13 12 11 11 10 9 7 6 6 6 5 4 4 4 3 3 4 4 4 4 4 3 3 3 4 4 4 4 4 3 3 3 4 4 3 3 3 3 4 3 5 7 6 4 5 6 8 9 10 11 10 6 8 10 9 9 10 8 6 4 4 4 3
2 2 2 1 2 3 5 5 6 8 7 6 6 4 6 5 2 1 11 11 4 8 8 13 17 19 18 16 16 14 15 14 12 12 12 11 10 8 8 8 8 7 6 6 5 5 5 4 3 3 3 3 4 4 4 4 3 4 3 4 4 4 4 3 3 3 3 3 3 3 3 3 4 3 3 4 4 4 4 3 4 5 4 4 6 5 5 4 5 4 3 4 4 3 3 3 3
2 1 2 2 1 4 7 4 2 8 4 4 3 10 7 4 2 3 12 14 11 11 12 12 17 19 18 18 16 14 14 13 13 12 12 13 12 9 8 5 5 5 6 6 6 6 6 5 4 4 3 3 3 3 4 4 4 3 3 3 4 3 3 3 3 3 3 3 2 2 3 4 4 3 4 3 3 4 4 4 4 4 4 4 4 4 4 3 3 3 3 3 3 3 3 2 1
1 2 3 3 3 4 4 8 1 10 3 2 2 5 4 4 3 3 8 5 3 8 12 15 17 17 15 15 15 15 14 13 13 13 12 12 11 10 9 7 8 7 6 6 6 6 6 6 5 5 4 3 3 3 3 3 3 3 3 3 4 2 2 3 3 2 2 2 2 2 3 3 3 3 3 2 3 3 4 3 3 3 3 3 3 3 2 2 2 2 3 3 3 3 3 1 0
1 1 2 4 4 7 3 7 5 7 7 7 3 6 4 2 9 2 5 1 7 10 12 15 15 14 15 16 15 15 14 14 13 12 12 13 13 12 10 9 7 5 6 6 6 6 7 7 7 6 5 4 3 3 3 4 3 3 3 4 4 4 3 2 2 2 2 2 2 2 3 2 3 3 2 3 2 3 4 3 2 3 3 3 2 1 1 2 2 2 2 3 3 2 3 2 1
3 3 3 5 6 5 6 6 3 6 8 6 6 6 4 7 2 3 4 4 13 13 13 14 14 14 14 14 14 14 13 12 12 11 9 7 10 10 8 7 7 7 7 7 6 7 7 7 8 7 6 5 4 4 3 3 3 3 2 4 4 5 4 2 2 3 3 2 2 2 2 2 2 2 3 2 2 2 2 3 3 3 3 3 2 2 0 0 1 2 3 3 3 3 3 3 2
7 5 8 5 7 7 5 7 8 7 4 1 9 4 4 3 10 1 1 12 16 16 14 15 15 14 14 14 13 13 13 13 12 11 10 8 9 11 9 8 8 9 8 7 7 6 7 8 9 8 7 6 5 5 3 4 4 4 3 3 3 3 3 3 3 2 2 2 2 2 2 2 2 2 3 2 3 2 2 2 2 3 2 3 2 1 1 0 0 1 1 2 2 3 3 3 3
10 8 8 9 9 10 4 5 7 4 4 4 4 6 2 2 5 1 4 17 18 16 15 15 16 14 13 12 12 12 13 13 13 10 9 8 9 10 9 8 8 8 7 8 7 7 7 8 8 8 7 7 5 5 4 4 4 3 3 3 2 3 3 3 4 3 2 2 2 2 1 1 2 2 2 2 2 2 2 1 1 1 2 2 2 2 1 0 1 1 1 1 2 2 3 2 2
11 10 10 9 7 7 7 5 9 6 4 6 7 7 5 5 3 1 11 16 20 18 16 16 14 13 12 13 12 10 11 11 10 10 12 11 9 9 9 8 8 8 8 8 7 6 8 9 9 8 8 8 7 6 5 5 5 4 4 3 3 3 3 2 2 3 2 2 2 2 1 1 2 2 2 2 2 1 0 0 1 0 1 3 1 1 2 1 1 1 1 0 1 1 3 3 2
12 12 10 10 10 9 6 6 4 1 4 5 7 11 4 4 1 3 7 15 20 19 17 16 14 13 12 12 11 9 10 10 9 9 11 10 8 8 10 8 9 8 6 8 7 8 9 8 8 8 8 8 8 8 6 5 4 4 4 4 3 4 3 3 2 3 2 2 2 2 1 1 2 3 2 1 1 1 0 0 0 1 1 2 1 0 1 1 2 2 2 2 3 2 3 3 2
11 6 10 8 6 4 2 4 3 5 4 9 4 7 3 3 6 3 8 15 17 18 16 14 13 12 11 11 10 10 9 10 10 10 9 9 9 9 10 8 9 8 7 6 7 8 7 6 6 6 7 8 8 6 5 5 5 4 4 3 4 4 3 4 3 3 3 3 2 2 1 1 2 2 2 1 1 1 1 1 0 1 2 1 1 0 1 2 2 2 2 3 3 3 4 3 3
6 7 3 5 6 3 4 4 5 7 1 1 1 7 4 6 6 2 9 16 19 17 16 15 13 12 12 11 10 10 10 10 12 11 11 11 10 9 9 8 9 8 6 7 9 8 8 7 6 6 8 7 8 6 7 6 6 5 5 4 4 5 4 4 3 3 3 3 3 3 2 2 2 2 2 2 2 2 1 0 0 1 2 1 2 1 1 1 2 2 2 3 3 3 3 2 2
5 6 1 0 3 3 3 3 7 8 4 1 2 4 8 8 5 3 5 14 16 16 15 15 14 13 13 11 11 11 11 11 12 11 12 12 11 9 10 10 9 9 9 8 8 8 8 7 7 7 8 8 7 6 6 6 6 5 5 6 5 4 5 4 3 4 3 3 4 4 3 2 2 2 3 2 2 2 2 0 1 1 1 1 1 1 1 0 1 2 1 1 3 4 3 3 2
2 2 5 5 3 5 6 4 4 3 7 3 2 5 4 3 5 3 1 10 15 15 15 13 16 15 14 12 11 10 10 12 11 12 12 11 10 9 9 10 10 10 9 9 9 9 7 8 8 8 9 9 7 6 6 5 6 6 5 5 6 5 5 4 3 2 3 4 4 4 4 3 3 4 4 4 3 3 1 0 1 1 1 1 1 1 1 1 0 1 1 1 1 1 3 3 4
3 1 3 3 7 8 5 4 3 0 7 5 4 4 6 4 7 2 0 2 12 13 14 13 14 14 13 12 11 11 10 11 12 12 12 11 9 10 10 10 10 10 8 9 9 9 8 8 8 7 7 8 7 6 6 5 5 5 4 4 5 5 5 4 3 2 3 3 3 3 4 4 4 5 5 4 4 2 1 1 0 1 2 2 2 2 1 1 1 1 2 1 1 1 3 3 4
5 3 5 1 1 7 7 9 8 7 3 4 5 7 6 9 3 3 5 1 6 14 14 14 14 14 13 11 11 10 10 11 13 11 13 12 11 10 9 9 9 9 8 9 9 7 6 7 6 7 7 7 7 6 5 5 5 3 3 3 4 4 5 4 4 4 3 3 4 3 3 4 4 4 3 3 3 2 2 1 1 1 2 3 3 2 2 1 1 2 2 3 2 2 2 2 2
9 8 7 7 6 5 6 3 11 13 7 7 7 9 8 9 6 2 4 3 5 13 13 12 12 13 12 11 10 9 9 11 11 12 13 12 11 11 9 9 9 9 8 8 9 8 7 6 5 5 6 7 6 6 5 5 5 4 4 2 2 3 4 5 5 5 4 5 4 4 4 4 3 4 3 3 3 2 3 2 2 2 2 3 2 1 0 1 0 1 2 2 4 4 2 2 2
5 5 7 10 5 5 6 7 11 13 10 8 8 8 8 10 8 4 3 6 6 13 14 12 12 12 11 10 10 10 10 11 11 13 13 12 13 11 10 9 9 9 8 9 9 8 8 8 7 7 6 7 7 7 6 6 5 4 2 4 4 4 4 4 4 4 4 5 4 4 4 4 3 3 3 4 4 3 3 2 3 2 2 2 2 1 0 0 0 0 0 1 2 4 2 1 1
5 7 6 6 5 4 1 6 8 2 3 5 6 7 8 11 10 7 3 6 11 15 14 14 13 13 11 11 11 10 10 7 10 10 11 11 10 11 9 8 8 9 7 8 9 9 8 8 8 6 6 7 7 8 7 6 5 5 5 5 3 4 5 5 3 3 3 4 4 4 3 3 3 3 3 3 3 4 4 3 2 2 2 3 2 1 0 1 1 2 1 2 2 1 2 2 3
3 6 6 7 3 5 7 8 5 4 3 5 7 9 6 7 8 5 2 3 2 3 14 14 14 13 11 11 10 10 9 9 11 12 12 12 12 11 10 9 9 11 11 11 8 8 8 8 7 6 6 7 7 7 7 6 3 3 3 4 4 3 1 1 2 1 2 3 4 4 4 3 3 3 3 3 4 3 4 4 3 2 2 1 2 1 1 1 1 2 2 1 4 2 1 3 1
5 6 7 7 9 8 4 4 5 3 0 8 8 8 2 3 4 5 1 3 4 3 4 13 13 14 13 13 12 12 12 12 13 13 13 12 12 11 10 10 10 8 8 7 8 9 7 6 6 7 7 6 7 7 7 6 6 3 1 3 2 2 2 2 2 2 1 2 3 3 3 4 3 3 3 3 3 3 3 3 3 2 2 2 3 2 1 0 1 2 2 1 1 3 3 3 1
2 6 5 6 11 3 5 9 6 6 6 9 10 5 1 2 6 6 4 0 5 4 2 7 8 9 12 9 10 13 14 14 14 13 13 13 12 12 12 11 9 9 9 9 9 9 7 8 7 8 7 7 7 7 7 5 4 2 2 3 2 2 4 3 2 1 3 3 2 3 4 3 3 3 3 3 3 3 3 3 3 2 2 2 2 2 1 1 1 0 1 1 1 0 3 2 2
2 6 8 11 12 9 13 13 11 2 2 6 13 6 5 5 4 8 3 1 5 2 3 8 7 6 5 8 11 11 12 13 15 15 15 14 13 11 10 11 11 10 10 9 10 10 7 7 6 7 6 6 7 7 6 6 6 6 4 4 4 2 2 4 5 6 5 5 6 3 3 4 4 3 3 3 3 3 3 2 2 2 2 2 2 1 1 0 1 1 1 2 1 2 2 1 3
2 6 8 8 10 13 17 13 8 4 5 9 4 6 3 3 7 8 5 5 8 3 0 3 5 4 6 8 10 10 13 11 12 13 13 13 13 12 11 12 12 12 11 9 8 8 8 8 7 7 7 6 6 6 6 5 6 6 7 6 6 6 6 4 4 4 5 4 4 5 5 4 4 4 3 3 3 3 2 2 2 2 1 1 1 1 0 1 2 1 0 1 2 1 1 1 2
4 3 13 11 11 15 15 12 5 2 5 5 2 2 4 2 7 6 7 5 7 5 4 2 3 3 6 5 8 9 12 12 12 13 14 15 14 14 14 13 12 13 11 9 8 7 9 8 8 7 6 6 6 6 6 6 7 6 6 5 5 6 6 6 6 5 3 4 5 4 4 4 4 4 4 3 3 3 3 2 2 1 1 1 1 2 2 2 1 2 1 2 1 1 2 2 1
6 4 14 15 14 13 14 9 5 7 9 6 5 2 3 3 1 5 7 10 9 10 7 5 3 3 3 4 4 6 10 12 13 13 14 15 15 14 13 13 11 10 10 10 10 9 8 8 8 6 6 6 5 5 6 5 6 7 7 6 5 5 5 5 4 4 5 4 5 3 4 4 3 3 3 4 4 4 3 3 3 2 2 2 2 2 2 2 3 2 2 0 1 1 2 2 1
4 5 8 8 7 9 8 3 4 5 5 6 11 8 3 1 3 6 4 6 10 11 10 7 5 5 4 4 3 2 3 5 11 15 15 15 15 14 14 12 11 12 11 10 9 8 8 7 7 7 6 5 5 4 5 4 4 6 6 6 7 5 3 3 4 5 4 4 5 4 4 4 4 3 3 3 4 4 4 4 4 4 3 3 2 3 2 3 2 3 2 2 1 2 2 2 1
7 16 15 11 11 7 8 4 2 3 1 6 9 10 4 2 6 10 13 13 13 10 6 4 3 2 3 2 4 2 2 4 6 9 12 14 14 14 12 13 12 10 8 9 9 9 8 9 8 8 7 5 5 5 4 4 3 5 6 6 7 7 5 5 4 3 3 3 5 4 4 5 4 4 4 3 4 4 4 4 4 4 4 3 3 3 3 3 3 3 2 1 2 2 1 0 1
13 4 9 11 10 8 9 6 3 2 3 4 13 11 2 2 2 7 9 5 10 13 13 11 8 5 4 3 5 9 10 6 4 9 10 11 10 10 11 11 11 10 9 9 8 8 9 9 9 9 6 6 5 5 5 4 4 4 4 5 6 6 7 6 7 6 5 6 5 5 4 4 4 4 3 4 4 4 3 3 3 3 4 3 4 3 3 3 2 2 1 1 2 1 1 0 1
7 9 9 11 2 3 1 6 5 1 4 2 12 11 1 6 2 3 10 4 7 10 10 11 9 6 5 11 11 6 5 7 4 4 8 9 12 12 11 11 10 10 11 12 11 10 9 9 10 10 9 7 7 6 6 5 4 4 4 5 5 5 6 7 6 6 5 6 5 5 5 5 4 4 5 5 5 5 4 4 4 4 4 4 3 3 3 3 2 2 2 1 1 2 1 1 0
10 11 9 10 5 3 2 4 3 3 4 2 11 11 3 2 2 4 9 10 8 10 8 7 8 4 10 9 7 4 3 4 5 6 8 11 12 13 14 13 13 12 12 12 11 10 9 9 10 11 11 8 6 6 6 6 5 5 4 5 5 5 5 6 6 6 6 6 6 6 6 6 6 6 6 6 6 5 4 5 5 5 4 4 3 3 3 3 2 2 3 3 3 3 1 1 1
10 8 11 8 9 7 5 4 4 4 1 3 9 8 4 1 1 7 7 7 7 8 9 6 6 12 10 7 5 5 4 2 5 6 6 9 11 13 14 13 13 13 13 12 11 11 10 10 11 11 9 8 7 7 6 6 6 5 4 4 5 4 5 5 6 6 6 6 5 6 6 5 6 6 6 6 5 5 5 5 5 5 4 4 3 3 3 3 3 2 3 3 3 3 2 1 1
2 4 6 10 8 6 8 9 7 6 4 5 1 2 0 1 1 4 2 7 7 9 10 12 8 9 11 8 7 4 4 3 1 6 5 2 4 7 8 10 12 12 13 12 12 11 11 11 12 12 12 10 9 8 7 7 6 5 5 5 4 4 4 4 4 4 5 6 6 7 6 6 6 5 5 4 5 6 6 6 5 6 5 5 4 4 4 3 3 3 2 3 4 2 3 2 2
4 6 7 7 5 7 5 2 1 5 6 1 1 1 2 3 2 6 6 9 8 7 8 8 9 9 9 9 8 8 7 6 3 4 5 6 6 4 6 8 7 9 11 12 13 13 14 12 11 11 10 9 9 10 9 7 7 6 6 5 4 4 4 5 5 5 6 5 6 6 6 6 5 4 5 4 5 5 5 6 6 6 5 5 5 4 4 3 3 3 3 2 3 2 2 3 2
5 6 8 1 3 4 6 4 0 3 4 1 1 1 2 1 1 2 7 11 10 9 7 6 8 11 12 10 9 9 8 5 3 2 2 5 7 7 6 7 9 10 11 11 12 12 12 12 13 13 11 11 11 11 10 9 8 8 7 6 6 5 4 5 5 6 5 5 5 5 4 5 6 6 5 4 4 5 5 5 5 5 5 4 5 4 4 4 3 4 3 3 3 2 2 0 2
8 7 5 5 1 3 1 6 2 3 1 1 2 1 1 1 1 1 7 7 6 7 8 8 9 10 10 9 8 7 6 6 6 7 6 5 6 7 6 6 5 6 7 9 10 10 8 6 8 11 13 14 14 11 10 9 9 8 7 8 7 5 4 4 4 4 4 5 6 5 5 6 5 4 5 4 4 5 5 5 5 5 4 5 4 4 4 4 3 3 3 4 3 2 2 2 2
3 5 3 1 4 3 4 5 5 6 5 3 2 1 2 1 0 3 9 11 10 11 10 9 11 10 10 9 9 7 6 6 6 5 5 5 4 5 6 7 6 6 6 7 9 8 9 8 8 8 6 5 4 6 8 9 9 8 8 7 6 6 5 5 4 5 6 6 6 6 6 5 6 4 5 4 4 5 5 5 5 5 5 4 4 4 4 4 4 4 3 3 3 2 3 3 3
1 3 2 0 2 2 5 2 2 6 7 4 6 1 4 1 2 3 8 8 6 8 11 9 7 7 7 8 7 6 5 5 6 5 5 6 6 5 4 4 4 4 4 3 5 10 8 6 7 7 9 9 9 8 6 6 7 8 8 9 9 8 8 6 5 5 6 6 5 5 5 6 4 5 4 4 5 5 5 6 5 5 5 5 5 5 4 4 4 4 4 3 3 3 3 3 3
6 5 2 4 4 3 4 1 2 3 6 6 6 5 1 3 3 3 8 5 5 7 12 9 6 7 7 6 6 5 5 5 7 6 6 5 5 5 6 4 3 4 6 6 5 4 5 5 2 4 7 8 9 9 9 9 8 8 9 9 9 7 7 6 6 5 5 6 5 5 5 3 5 5 5 6 6 5 5 6 6 6 6 6 5 5 5 4 5 4 4 3 4 3 3 4 3
Wind_Direction
157 140 118 146 164 156 86 345 83 305 105 33 132 72 181 312 176 116 100 103 138 231 141 136 118 139 188 193 125 102 0 138 192 136 214 170 109 128 138 128 125 130 150 158 169 160 145 127 129 119 121 119 118 113 114 113 113 111 111 112 113 115 117 119 118 115 115 119 119 117 114 116 116 114 114 113 115 115 116 119 121 120 116 113 114 115 114 113 113 112 110 108 110 110 110 110 103
139 138 133 132 99 17 351 275 114 348 30 43 336 132 164 276 91 136 148 169 187 153 150 107 91 84 61 108 132 126 41 30 291 144 68 110 112 109 138 130 133 140 145 138 132 116 113 129 129 122 119 115 115 120 120 116 114 117 120 120 118 120 120 124 121 118 117 117 116 116 118 118 116 115 117 117 117 118 120 122 123 121 116 113 115 114 114 116 116 114 112 111 112 114 112 107 112
146 145 108 55 120 42 241 141 108 153 102 98 269 181 263 124 152 167 164 181 195 118 130 104 91 59 21 360 95 30 216 44 89 98 107 151 120 138 131 127 125 126 129 124 116 114 116 126 118 120 116 117 122 116 113 117 123 122 120 114 116 117 118 121 122 119 118 117 118 118 118 116 115 115 117 120 120 121 122 124 122 114 110 113 109 113 115 117 120 119 115 115 114 116 114 102 108
150 169 138 170 24 255 87 52 79 116 46 200 55 294 129 172 151 160 177 159 109 125 138 121 118 304 92 50 96 81 81 120 96 131 130 178 166 137 132 125 122 120 117 116 115 110 115 122 117 117 121 121 124 114 117 121 117 111 113 117 115 124 123 121 121 120 119 118 116 117 119 119 119 118 118 120 121 119 121 121 121 117 115 114 118 113 116 119 125 123 120 118 113 112 110 122 129
163 174 140 101 120 36 20 325 159 148 148 204 161 237 208 143 115 137 219 217 171 147 144 116 91 333 130 102 138 119 204 99 140 189 108 84 117 133 130 123 121 125 126 113 106 104 117 120 127 116 129 125 119 120 121 121 117 121 123 133 126 117 115 118 119 119 120 118 117 117 117 119 120 121 120 120 119 119 119 117 116 118 120 112 104 113 114 121 124 124 120 115 115 113 109 104 100
106 137 229 97 30 342 292 336 23 56 225 139 145 215 197 144 97 162 357 104 124 135 116 100 131 145 79 34 19 80 124 152 147 119 125 130 132 135 126 124 122 122 123 102 104 100 101 133 136 131 132 125 125 127 123 113 116 125 126 115 112 115 118 120 118 120 119 116 116 116 117 117 119 122 123 120 114 113 116 121 125 112 111 104 115 119 125 124 124 118 114 113 114 113 106 104 106
142 112 92 131 152 230 194 139 148 179 333 304 214 138 170 126 159 119 120 78 18 63 333 121 113 103 82 106 63 42 112 119 130 136 122 131 132 127 128 124 118 115 115 111 103 107 138 143 145 146 128 126 118 116 123 120 121 120 118 116 115 114 116 118 119 117 116 114 114 115 116 118 119 117 120 121 118 117 116 117 116 114 115 131 144 132 130 128 119 117 114 112 109 107 101 102 103
76 83 355 92 260 175 201 215 186 151 238 254 161 356 71 100 60 115 120 125 152 118 112 132 130 94 72 32 112 83 77 58 95 108 118 126 127 125 127 125 117 119 116 113 111 131 150 150 163 138 129 122 121 121 124 116 112 106 107 113 112 115 116 118 117 117 116 115 112 112 113 111 110 113 118 122 127 133 128 127 127 126 133 137 135 129 126 126 119 114 111 111 105 101 103 101 98
52 99 275 27 272 206 292 204 170 98 199 286 55 308 104 93 20 94 125 112 108 126 143 147 157 97 126 99 75 100 79 98 108 118 119 124 125 130 127 126 124 121 117 119 128 155 119 158 151 137 135 123 119 121 123 115 113 118 118 123 119 116 115 116 114 115 114 113 112 109 113 116 120 124 125 121 126 130 128 121 119 127 127 127 127 129 131 125 122 118 119 107 103 100 105 105 108
68 288 185 163 249 202 191 226 130 134 165 277 132 93 87 27 50 82 112 122 133 124 123 117 67 106 122 102 104 72 107 120 123 115 120 123 128 127 125 125 124 122 118 121 129 120 137 149 145 144 133 122 117 116 115 121 128 120 118 114 113 114 116 118 116 114 114 112 105 93 92 110 116 114 119 121 125 130 125 127 134 121 123 124 130 130 130 125 123 119 109 108 109 109 103 98 115
88 67 343 184 176 220 184 136 103 83 124 200 84 57 85 160 88 48 105 122 118 117 111 108 94 118 124 82 61 107 120 127 127 126 130 128 129 128 124 121 122 123 122 121 120 110 170 150 147 144 131 116 112 127 138 134 116 114 110 109 115 118 118 115 116 117 113 108 104 106 102 111 117 117 123 122 130 129 127 126 127 126 128 130 127 130 132 126 119 113 110 110 113 111 104 98 111
194 204 141 251 189 181 202 129 131 118 122 151 73 20 296 107 83 73 139 127 123 123 130 154 141 129 94 114 114 128 131 131 127 129 131 129 124 120 118 121 122 121 119 120 119 120 135 121 117 147 135 122 131 140 153 123 114 110 117 121 120 116 119 121 116 115 111 111 108 116 130 123 112 116 112 118 131 131 124 123 131 133 129 136 134 132 127 124 114 114 118 114 108 105 101 103 113
160 144 110 170 243 34 93 123 147 137 116 159 156 104 226 72 84 297 147 126 134 134 178 110 144 168 112 120 121 131 142 136 135 135 133 129 121 116 115 118 121 118 118 116 112 110 98 88 96 108 148 126 149 155 116 116 117 122 128 127 126 129 129 123 119 117 116 113 113 122 114 112 116 118 132 137 144 135 131 136 136 131 130 126 123 126 127 124 122 125 122 111 104 95 93 98 110
155 222 144 262 96 139 149 116 155 132 187 140 329 145 286 111 101 312 146 122 144 129 121 134 127 112 96 110 135 152 145 144 143 139 133 123 117 117 118 116 116 114 114 110 102 103 95 82 81 87 99 108 106 111 118 124 121 120 121 122 124 126 127 124 123 121 121 120 116 115 115 115 118 121 121 116 121 121 123 127 120 121 120 124 126 128 129 126 124 124 118 111 103 99 95 99 105
195 48 124 271 334 120 147 151 169 153 167 153 163 160 135 107 105 0 144 126 47 131 113 72 143 96 183 155 162 170 152 153 145 133 125 118 116 117 117 116 111 112 113 108 95 98 90 80 74 73 73 66 82 88 91 116 124 121 121 124 130 131 122 115 123 127 125 129 125 119 117 120 119 114 105 109 107 118 126 127 127 130 127 134 127 129 129 124 123 123 116 106 104 95 88 88 101
135 103 251 294 178 164 165 126 142 136 162 162 161 158 93 30 131 115 210 167 130 123 130 148 254 60 156 334 149 146 147 146 136 128 121 117 115 114 114 114 112 112 111 110 100 89 99 91 87 80 76 80 83 81 110 147 133 122 124 133 135 138 122 132 131 135 132 131 130 120 103 81 91 101 114 117 121 127 126 126 125 124 126 128 128 127 130 128 128 125 120 112 108 104 102 103 106
73 1 193 189 288 163 164 148 154 175 117 129 131 159 150 176 98 268 321 136 129 154 36 96 119 113 143 123 139 138 141 135 133 128 120 119 121 119 114 113 118 116 122 115 110 113 108 111 105 93 97 96 90 84 67 51 99 120 130 140 139 114 121 129 125 136 121 116 98 83 58 52 48 39 59 73 115 122 119 123 127 125 125 126 128 129 130 130 125 122 121 116 106 102 98 101 105
135 188 170 16 239 122 173 170 14 91 141 154 166 183 158 153 109 295 101 88 108 101 84 88 96 94 107 122 128 137 137 136 138 135 133 130 132 131 133 137 137 144 137 132 127 127 121 119 118 110 100 98 95 83 68 71 91 90 55 71 86 103 114 123 111 68 60 45 86 67 52 51 38 39 43 49 41 90 99 122 128 123 125 125 125 128 129 127 120 121 114 109 108 98 76 44 58
191 190 89 164 137 226 138 86 27 139 156 145 164 165 150 161 125 273 128 139 120 104 110 117 102 105 113 125 137 141 141 140 141 140 141 142 145 146 148 148 149 142 147 142 144 140 134 128 125 116 109 106 97 88 81 80 73 51 53 62 90 112 114 104 69 73 61 65 59 59 58 40 41 46 40 85 91 92 99 117 120 125 125 126 126 125 125 120 123 121 115 112 93 69 53 48 56
229 190 198 222 209 137 100 99 150 257 134 147 156 189 159 130 117 2 138 141 127 133 140 131 127 131 137 141 146 145 144 144 145 146 147 148 150 150 151 157 157 161 157 155 153 143 138 138 134 126 125 116 107 97 90 88 70 58 63 72 79 86 87 87 77 69 63 65 62 65 52 43 33 16 92 81 47 58 98 96 106 109 120 119 108 98 110 109 93 109 104 75 55 56 55 42 35
206 193 219 163 204 152 87 123 147 127 133 153 156 153 140 164 134 101 143 123 138 140 157 150 145 143 145 149 146 149 149 150 148 152 150 150 151 151 156 162 164 160 154 142 148 157 149 146 135 133 122 122 113 116 117 108 87 76 71 83 88 88 89 79 72 72 70 62 56 57 46 49 22 24 32 27 37 29 44 61 55 53 52 61 66 61 49 58 67 68 58 59 57 52 53 44 36
136 269 83 64 17 78 84 45 20 126 123 121 151 151 162 114 72 135 156 155 169 169 164 152 144 143 148 148 150 151 154 154 154 155 156 155 154 153 153 151 147 146 139 150 160 156 157 152 145 138 131 129 128 124 132 142 120 103 98 108 95 86 98 84 78 74 67 61 58 56 55 44 44 44 30 26 21 19 29 37 52 50 46 50 53 62 51 56 61 62 68 60 38 42 49 53 49
124 223 101 53 23 85 138 125 134 119 118 119 75 3 345 130 120 156 154 151 131 146 151 150 146 146 144 141 148 154 156 158 159 160 157 156 155 157 162 163 160 159 159 155 153 157 156 150 147 145 140 139 128 126 132 113 116 118 114 127 114 100 91 93 88 74 57 65 68 78 71 59 60 47 41 26 24 23 32 26 40 43 48 36 31 68 54 34 42 41 48 42 33 27 15 349 292
323 150 119 69 56 73 90 111 136 124 117 138 174 117 354 176 137 201 135 178 134 134 144 144 141 140 141 146 155 156 157 161 163 162 164 161 160 163 165 163 161 148 149 152 155 156 158 156 152 155 147 146 144 146 134 128 129 129 164 153 120 151 126 116 102 111 103 79 85 88 91 79 76 64 60 50 28 43 36 27 30 31 23 9 351 63 51 7 15 35 29 20 16 12 354 339 319
175 128 149 115 82 77 83 111 98 131 133 122 129 127 130 334 165 140 144 144 129 133 141 140 141 143 145 149 154 154 155 158 161 161 160 160 159 155 156 155 156 154 158 158 156 158 161 153 156 159 158 152 154 156 151 146 144 151 139 126 152 157 132 135 134 115 115 116 115 102 107 84 65 77 85 65 54 48 29 27 27 25 9 352 349 12 67 17 16 28 26 13 14 358 337 324 318
209 164 142 142 99 99 75 62 61 65 50 129 101 90 78 62 295 131 256 140 135 138 142 142 141 148 152 156 155 157 159 161 161 163 165 159 160 156 162 164 160 168 166 157 158 163 157 150 160 162 162 158 162 165 161 159 161 160 144 146 169 132 133 141 150 129 103 123 131 111 104 113 94 83 81 46 71 52 31 20 28 12 359 324 341 317 318 147 30 47 36 31 11 344 337 315 346
170 158 155 136 121 104 78 96 92 109 105 17 112 107 70 119 281 153 132 142 136 140 145 146 147 154 157 157 158 161 162 164 166 162 157 163 167 169 167 164 169 171 157 162 162 159 159 155 160 159 158 163 163 175 172 170 165 161 153 154 122 125 136 149 162 152 141 129 136 127 120 137 108 99 94 77 74 51 35 27 0 345 346 319 295 288 322 216 126 108 95 49 352 337 304 293 322
149 145 129 110 117 101 132 106 120 150 87 139 109 73 62 331 299 50 150 146 141 145 149 151 152 154 160 161 162 165 167 168 163 164 169 172 176 175 174 172 172 166 167 169 164 154 156 160 158 158 159 163 170 176 180 175 173 167 158 149 133 133 137 139 162 158 170 141 138 147 164 169 117 97 98 81 80 60 27 5 305 17 308 304 290 307 342 43 99 91 83 62 292 296 316 343 332
133 133 115 120 104 110 149 129 132 260 111 93 124 85 38 336 328 328 157 148 145 148 153 156 156 157 161 165 164 169 173 171 168 173 180 181 175 177 180 178 169 168 172 166 158 159 162 161 159 161 159 164 172 176 177 170 157 160 154 163 140 144 151 158 177 179 166 150 143 154 173 149 116 119 123 136 126 149 153 20 321 310 294 300 295 332 39 37 49 28 12 7 346 6 353 344 3
119 94 125 131 116 108 109 67 43 62 114 144 204 136 213 282 274 310 166 149 148 148 155 161 160 162 164 169 171 172 176 173 177 181 180 181 180 181 184 177 173 168 162 163 156 168 164 162 162 162 164 166 176 170 156 158 160 155 165 154 154 147 156 167 187 174 169 156 146 149 166 175 115 147 153 144 147 181 172 153 256 300 311 318 343 84 67 45 47 34 359 11 351 9 0 335 348
121 114 79 124 141 156 164 140 196 124 17 147 323 130 205 230 267 273 161 154 154 156 161 164 164 166 168 174 175 178 180 182 182 181 181 180 181 184 183 174 175 166 160 162 170 168 165 163 166 171 170 171 176 172 165 161 161 154 158 163 160 155 159 165 169 167 164 153 149 157 183 196 148 168 173 172 213 191 167 153 272 267 307 16 32 65 110 69 66 49 10 1 338 359 345 323 8
129 114 95 67 154 119 139 95 185 136 153 275 21 88 183 205 232 229 145 162 160 158 165 168 166 169 173 175 177 180 181 183 185 180 179 178 179 180 178 178 174 170 170 168 165 164 166 164 172 167 168 170 177 173 161 156 158 156 159 166 158 155 149 164 165 166 164 160 166 171 181 197 191 199 193 191 207 217 183 179 247 288 292 56 43 48 98 87 43 49 46 70 4 333 349 336 6
306 116 150 158 120 126 131 190 235 5 123 173 257 136 100 276 230 245 103 163 165 163 167 170 168 169 173 175 177 181 176 183 183 178 178 176 179 176 178 176 176 175 170 166 166 166 166 165 172 162 168 170 171 166 154 146 147 156 160 159 160 152 151 158 165 162 163 174 178 174 172 189 193 204 201 196 201 205 218 257 279 220 194 103 71 59 79 89 87 7 336 44 108 304 334 328 354
239 106 138 188 155 145 155 145 241 336 149 165 186 125 186 150 181 209 146 75 170 167 168 166 166 171 174 175 177 180 174 177 181 177 175 175 175 176 176 175 174 172 170 168 168 170 170 165 170 167 163 162 163 164 161 147 144 144 145 150 157 156 155 154 164 172 189 193 182 184 177 188 182 195 193 190 193 193 187 186 222 172 123 96 80 70 77 92 79 62 342 339 67 355 332 0 339
190 145 98 89 84 165 140 162 188 139 177 160 146 145 150 149 118 235 196 25 182 174 169 169 168 170 175 177 179 177 174 173 179 177 173 172 172 174 171 172 168 170 170 168 168 168 164 166 166 170 155 152 154 149 141 119 114 104 110 145 139 149 150 157 168 179 191 188 193 191 185 191 171 179 178 170 180 181 133 133 155 105 104 103 83 73 70 78 73 55 40 328 337 259 255 304 307
178 182 164 155 173 183 161 141 149 149 158 160 161 166 157 150 167 283 243 271 208 177 172 170 172 173 177 179 180 175 175 178 176 174 172 170 171 171 170 170 169 170 168 166 167 162 163 167 165 165 151 147 140 136 132 129 128 139 147 133 144 168 164 163 172 181 180 179 186 184 187 174 160 152 151 157 148 131 136 134 100 77 95 105 95 84 47 42 40 355 341 352 341 336 333 307 350
208 194 153 170 152 79 124 138 165 150 145 175 182 164 155 149 171 195 265 300 208 177 177 179 176 177 180 182 181 175 175 180 175 170 170 171 171 171 168 167 169 167 164 167 167 163 165 171 166 172 158 146 146 142 148 152 146 133 127 185 183 173 171 171 177 183 179 173 174 175 172 159 148 143 141 142 138 132 122 119 109 91 101 94 103 114 84 38 191 170 20 4 17 13 330 353 40
203 168 138 119 138 131 102 127 149 184 144 146 103 159 152 145 169 170 220 223 212 180 182 182 181 179 183 180 180 176 177 171 162 164 169 168 169 168 164 164 164 162 174 170 173 168 166 165 171 159 152 155 157 159 161 171 171 175 162 182 177 156 168 166 182 204 183 171 165 164 168 153 148 150 137 130 126 136 137 127 126 117 92 93 103 140 147 36 14 29 35 19 25 45 311 327 336
53 137 124 113 82 108 61 93 133 188 109 134 133 155 160 132 159 183 208 281 291 230 187 185 180 181 184 181 177 170 165 167 165 166 166 169 168 166 166 167 174 174 172 176 174 162 163 165 167 147 160 160 164 163 157 173 187 177 153 163 163 140 138 146 141 146 176 161 158 161 161 154 148 148 142 137 135 144 146 143 151 126 99 109 102 81 67 41 21 13 63 67 344 354 273 279 275
108 107 141 173 169 153 151 151 125 5 183 146 165 127 104 84 112 196 177 301 297 304 220 189 180 180 185 182 174 170 168 162 167 166 167 168 166 168 168 171 175 170 170 171 171 170 165 168 163 149 160 162 163 171 170 173 174 177 86 125 119 100 168 144 122 119 162 140 167 159 161 157 155 155 150 146 139 146 152 157 153 145 132 127 138 139 98 51 357 7 54 93 104 344 355 312 189
207 171 162 145 178 217 142 154 124 100 44 128 124 94 91 159 174 211 180 323 272 310 101 182 191 191 186 175 169 168 168 166 164 167 167 165 166 171 174 175 168 169 175 179 177 174 172 173 168 156 158 168 165 170 167 160 144 104 73 76 80 55 61 91 105 175 182 180 156 169 183 164 164 162 157 149 146 151 151 153 162 167 149 144 141 133 147 203 232 159 105 119 140 210 314 321 317
264 227 193 178 181 123 115 131 129 107 134 196 148 150 196 187 219 208 148 157 270 318 131 171 171 175 185 169 174 174 166 164 163 168 170 168 169 171 172 170 170 172 179 186 182 174 167 166 163 157 153 162 165 168 159 154 164 151 132 139 139 130 131 146 180 189 184 182 186 175 162 176 171 168 162 156 146 146 162 169 170 170 180 165 155 159 168 27 294 305 181 179 194 198 231 328 303
129 255 178 171 153 132 140 150 145 138 171 207 238 155 185 186 214 202 168 206 249 291 176 155 149 170 180 178 171 175 167 162 164 166 165 166 170 167 173 176 173 174 184 181 180 175 166 165 165 164 163 165 167 165 155 147 153 159 165 174 170 170 171 205 197 189 180 178 151 167 173 179 178 170 175 164 163 164 160 170 181 189 193 182 197 140 201 229 242 222 192 152 213 203 131 286 255
227 227 140 155 146 145 155 152 154 134 72 86 73 63 135 190 231 195 161 204 246 268 254 190 164 166 178 176 177 175 171 160 163 168 171 170 171 171 176 180 176 179 174 172 178 173 168 170 166 169 169 169 175 157 154 155 156 164 167 177 175 174 183 188 186 187 168 154 156 169 164 181 183 182 173 173 171 172 164 183 188 195 201 229 227 206 221 233 223 261 238 219 186 180 163 186 246
216 170 146 166 162 147 149 148 149 146 121 154 204 242 68 220 139 126 148 192 209 236 230 199 196 178 174 152 168 187 176 163 162 169 172 173 174 177 174 178 180 168 166 173 180 176 172 170 168 164 170 174 184 164 153 158 155 165 169 170 177 193 186 187 171 160 158 160 157 161 169 180 186 195 186 178 177 173 179 184 185 194 208 233 234 237 241 222 219 240 275 273 200 126 164 188 141
263 96 69 73 87 127 128 103 141 153 107 182 195 195 138 245 178 172 167 214 207 213 217 201 188 178 175 157 141 113 166 157 168 171 173 174 176 177 179 171 166 174 175 174 171 164 166 165 170 167 177 182 181 171 156 161 162 157 165 174 174 179 166 142 155 159 161 161 167 175 178 181 190 198 203 190 182 184 184 180 181 193 206 215 226 233 248 253 247 226 225 211 175 158 210 176 256
123 105 90 63 45 27 10 28 356 59 101 222 178 187 132 206 214 192 180 207 189 185 205 210 165 166 158 163 133 90 83 161 166 174 174 176 177 173 167 173 175 166 166 166 165 169 167 170 173 175 183 183 185 176 162 172 169 168 171 177 176 170 164 154 156 170 155 157 177 184 183 194 188 200 195 202 197 192 190 186 184 197 201 208 223 215 225 231 238 230 233 164 170 194 181 185 1
128 126 116 89 22 18 28 348 329 107 254 250 172 184 138 200 257 205 222 63 168 175 187 187 189 184 173 128 67 46 43 13 186 167 178 174 170 172 170 171 170 168 162 166 169 166 170 174 172 176 180 186 191 178 168 175 171 185 179 177 178 175 163 166 175 180 183 183 186 189 188 177 203 201 199 197 210 202 193 197 197 195 207 207 218 208 221 222 239 252 269 177 207 215 161 156 335
116 126 126 115 95 49 17 7 330 240 199 233 168 158 97 251 216 262 190 203 176 180 175 184 181 184 123 72 64 64 72 78 58 173 168 172 172 171 175 175 167 167 173 173 172 172 172 173 175 176 186 186 190 181 178 174 177 188 182 184 185 173 173 173 179 181 185 188 188 186 176 190 189 195 204 200 211 200 193 195 205 205 215 214 217 209 233 229 226 242 243 217 219 251 216 173 334
126 146 141 113 117 101 143 222 241 296 283 171 165 156 203 265 283 329 197 181 176 171 149 159 190 124 88 101 118 121 119 128 120 145 174 178 178 178 176 172 176 178 177 174 173 172 173 176 179 182 187 183 183 184 181 176 186 189 184 185 180 171 181 180 182 182 189 192 185 190 189 187 190 198 193 204 202 195 194 201 204 211 210 213 210 206 212 224 207 203 213 214 220 228 190 207 230
166 149 155 153 147 155 171 193 198 203 239 38 133 132 236 158 273 332 307 163 140 149 143 147 103 104 109 105 120 154 148 193 133 126 156 181 187 181 176 178 178 179 178 175 176 177 173 176 180 185 181 184 181 186 182 183 186 189 192 191 175 172 182 186 191 191 187 189 192 189 195 192 194 201 194 202 192 190 195 197 207 208 211 212 213 214 207 205 208 194 202 215 225 210 214 208 262
207 145 64 135 185 151 159 190 173 164 163 94 145 211 228 207 264 321 329 109 110 119 120 119 111 112 115 124 139 171 166 166 353 104 111 118 174 183 184 183 181 179 179 179 179 176 178 181 182 183 183 182 184 183 186 187 189 185 190 193 190 179 185 192 197 199 199 195 190 189 193 196 205 198 205 189 199 188 191 197 203 210 210 209 209 211 208 202 195 188 204 199 226 208 220 241 250
202 137 165 200 176 117 90 40 53 87 73 22 179 283 314 265 6 29 42 82 96 113 115 125 126 118 117 135 155 171 172 168 180 141 144 135 111 119 167 181 188 186 182 183 182 182 184 181 179 183 183 179 183 186 184 184 184 185 198 196 190 192 188 192 197 200 201 200 194 194 192 201 201 197 200 198 198 203 196 196 204 210 207 208 206 210 206 202 181 176 185 191 217 234 194 227 251
104 155 211 121 68 110 124 163 354 57 114 223 46 289 276 81 215 351 69 71 58 63 72 101 126 135 149 159 164 168 166 171 162 151 173 144 131 136 148 170 182 185 187 189 189 189 186 181 180 180 178 183 188 184 183 184 184 190 193 198 202 202 200 201 198 195 196 194 203 202 197 196 207 204 200 201 194 205 210 209 207 215 210 202 206 203 198 199 182 183 189 198 212 173 179 236 245
146 179 181 116 200 203 326 108 146 111 67 161 328 349 262 141 227 118 94 104 98 104 115 124 137 149 150 160 163 141 134 132 153 176 180 162 140 140 144 148 145 160 185 193 193 186 180 187 189 183 185 189 186 185 185 186 185 189 191 196 195 201 204 207 208 196 183 194 202 201 202 208 205 205 205 211 199 207 211 220 214 220 213 210 208 206 197 196 188 197 195 206 207 179 192 245 257
39 82 65 275 109 147 145 192 162 119 147 131 324 329 256 169 215 108 113 141 158 149 138 136 144 148 152 155 151 143 138 149 164 186 173 159 145 144 133 130 131 144 156 174 181 180 183 176 175 191 193 180 180 195 187 187 191 190 193 190 193 190 195 199 204 194 192 199 203 197 206 209 213 200 211 212 210 211 210 214 218 221 219 215 208 211 197 197 192 202 204 214 221 183 202 229 262
39 51 5 1 17 230 108 47 104 152 152 168 136 217 261 313 263 135 131 132 128 136 128 124 116 120 124 126 115 112 122 126 138 159 164 164 163 149 131 120 132 116 93 96 159 177 177 166 174 175 171 175 184 188 192 203 194 199 193 196 195 188 193 191 195 201 200 202 203 201 203 211 200 214 207 212 218 223 218 213 213 214 216 214 210 210 203 194 195 205 211 211 226 206 214 236 235
147 149 175 163 141 122 95 279 347 84 116 163 151 210 308 345 0 143 117 111 103 117 118 106 95 99 94 99 102 109 120 126 131 130 129 136 135 118 110 112 114 107 104 90 63 79 133 149 161 181 176 182 182 185 191 192 196 199 201 202 203 196 191 184 194 199 204 206 205 205 204 201 211 220 203 213 214 221 221 219 214 213 214 215 213 210 204 192 201 209 216 202 214 215 221 239 228